Weather in Kalamata

Greece     37°02′25″N   22°06′42″E
temp.,
°C
wind,
m/s
gust,
m/s
humid.,
%
clouds,
%
prec.,
mm/h
press.,
hPa
HPBL,
m
6 march, sat
sat623:00+11wnw3367100 0.0 1021173
02:00+11n3469100 0.0 1021188
05:00+10n2269100 0.0 1020142
08:00+11n337081 0.0 1021159
11:00+15ese11560 0.0 1022421
14:00+15sse33590 0.0 1021559
17:00+15ene13640 0.0 1020347
20:00+12nnw45790 0.0 1021174
7 march, sun
sun723:00+12nnw34780 0.0 1022142
02:00+12nnw33760 0.0 102290
05:00+12n22730 0.0 1022105
08:00+12nnw22710 0.0 1022148
11:00+15sse22642 0.0 1023482
14:00+16sse236714 0.4 1022575
17:00+15se237120 0.6 1021470
20:00+13ne128126 1.1 1021332
8 march, mon
mon823:00+12se028279 0.4 1021259
02:00+11nnw228364 0.5 1020130
05:00+10nw228420 0.0 1018128
08:00+11wnw118112 0.0 1019147
11:00+13se227671 0.1 1018504
14:00+14sse227255 0.1 1017482
17:00+14s327335 0.0 1015358
20:00+12sse237730 0.0 1016340
9 march, tue
tue923:00+12n117899 0.0 1016145
02:00+11nw238393 0.0 101596
05:00+10n118155 0.0 101495
08:00+11nnw337474 0.0 1014134
11:00+15ssw115698 0.0 1014390
14:00+15ese116299 0.0 1013297
17:00+15sse456684 0.0 1012346
20:00+13sw127647 0.0 1013177
10 march, wed
wed1023:00+12nnw22810 0.0 1015100
02:00+11nnw23810 0.0 1014111
05:00+11nnw33800 0.0 101399
08:00+12nw22750 0.0 1014116
11:00+15se11600 0.0 1014488
14:00+16se33630 0.0 1014566
17:00+16wnw24600 0.0 1013504
20:00+12nnw46793 0.0 1015238